Time,TemperatureF,DewpointF,PressureIn,WindDirection,WindDirectionDegrees,WindSpeedMPH,WindSpeedGustMPH,Humidity,HourlyPrecipIn,Conditions,Clouds,dailyrainin,SoftwareType,DateUTC
2013-02-27 00:01:00,48.0,7.0,-100.00,ENE,58,6.0,10.0,18,-99.99,,,-99.99,,2013-02-27 08:01:00,
2013-02-27 00:11:00,48.0,7.0,-100.00,ENE,63,5.0,9.0,18,-99.99,,,-99.99,,2013-02-27 08:11:00,
2013-02-27 00:21:00,48.0,7.0,-100.00,ENE,75,5.0,11.0,18,-99.99,,,-99.99,,2013-02-27 08:21:00,
2013-02-27 00:31:00,47.0,6.0,-100.00,East,79,5.0,8.0,18,-99.99,,,-99.99,,2013-02-27 08:31:00,
2013-02-27 00:41:00,47.0,7.0,-100.00,East,81,5.0,12.0,19,-99.99,,,-99.99,,2013-02-27 08:41:00,
2013-02-27 00:52:00,46.0,8.0,-100.00,East,93,3.0,7.0,21,-99.99,,,-99.99,,2013-02-27 08:52:00,
2013-02-27 01:01:00,46.0,8.0,-100.00,ENE,72,3.0,9.0,21,-99.99,,,-99.99,,2013-02-27 09:01:00,
2013-02-27 01:11:00,46.0,8.0,-100.00,ENE,58,5.0,10.0,21,-99.99,,,-99.99,,2013-02-27 09:11:00,
2013-02-27 01:21:00,46.0,8.0,-100.00,East,79,5.0,9.0,21,-99.99,,,-99.99,,2013-02-27 09:21:00,
2013-02-27 01:31:00,46.0,8.0,-100.00,East,79,5.0,9.0,21,-99.99,,,-99.99,,2013-02-27 09:31:00,
2013-02-27 01:41:00,46.0,8.0,-100.00,ENE,58,4.0,9.0,21,-99.99,,,-99.99,,2013-02-27 09:41:00,
2013-02-27 01:51:00,46.0,8.0,-100.00,ENE,74,6.0,10.0,21,-99.99,,,-99.99,,2013-02-27 09:51:00,
2013-02-27 02:01:00,46.0,8.0,-100.00,ENE,78,5.0,9.0,21,-99.99,,,-99.99,,2013-02-27 10:01:00,
2013-02-27 02:12:00,46.0,8.0,-100.00,ENE,67,4.0,9.0,21,-99.99,,,-99.99,,2013-02-27 10:12:00,
2013-02-27 02:21:00,45.0,7.0,-100.00,ENE,72,6.0,11.0,21,-99.99,,,-99.99,,2013-02-27 10:21:00,
2013-02-27 02:31:00,45.0,7.0,-100.00,East,81,7.0,12.0,21,-99.99,,,-99.99,,2013-02-27 10:31:00,
2013-02-27 02:42:00,45.0,6.0,-100.00,East,84,5.0,12.0,20,-99.99,,,-99.99,,2013-02-27 10:42:00,
2013-02-27 02:52:00,45.0,6.0,-100.00,ENE,72,7.0,11.0,20,-99.99,,,-99.99,,2013-02-27 10:52:00,
2013-02-27 03:01:00,45.0,5.0,-100.00,ENE,72,7.0,11.0,19,-99.99,,,-99.99,,2013-02-27 11:01:00,
2013-02-27 03:11:00,45.0,4.0,-100.00,ENE,69,8.0,14.0,18,-99.99,,,-99.99,,2013-02-27 11:11:00,
2013-02-27 03:21:00,46.0,4.0,-100.00,ENE,71,9.0,15.0,17,-99.99,,,-99.99,,2013-02-27 11:21:00,
2013-02-27 03:31:00,46.0,4.0,-100.00,ENE,63,8.0,16.0,17,-99.99,,,-99.99,,2013-02-27 11:31:00,
2013-02-27 03:41:00,45.0,3.0,-100.00,ENE,71,7.0,16.0,17,-99.99,,,-99.99,,2013-02-27 11:41:00,
2013-02-27 03:52:00,45.0,3.0,-100.00,ENE,63,7.0,14.0,17,-99.99,,,-99.99,,2013-02-27 11:52:00,
2013-02-27 04:01:00,45.0,3.0,-100.00,ENE,63,7.0,14.0,17,-99.99,,,-99.99,,2013-02-27 12:01:00,
2013-02-27 04:12:00,45.0,2.0,-100.00,NE,47,8.0,15.0,16,-99.99,,,-99.99,,2013-02-27 12:12:00,
2013-02-27 04:22:00,46.0,2.0,-100.00,NE,49,9.0,16.0,16,-99.99,,,-99.99,,2013-02-27 12:22:00,
2013-02-27 04:32:00,46.0,2.0,-100.00,NE,54,9.0,16.0,16,-99.99,,,-99.99,,2013-02-27 12:32:00,
2013-02-27 04:42:00,45.0,2.0,-100.00,ENE,65,5.0,10.0,16,-99.99,,,-99.99,,2013-02-27 12:42:00,
2013-02-27 04:52:00,45.0,3.0,-100.00,ENE,70,5.0,10.0,17,-99.99,,,-99.99,,2013-02-27 12:52:00,
2013-02-27 05:02:00,45.0,3.0,-100.00,ENE,66,7.0,16.0,17,-99.99,,,-99.99,,2013-02-27 13:02:00,
2013-02-27 05:11:00,45.0,2.0,-100.00,NE,50,11.0,17.0,16,-99.99,,,-99.99,,2013-02-27 13:11:00,
2013-02-27 05:21:00,45.0,2.0,-100.00,NE,56,8.0,17.0,16,-99.99,,,-99.99,,2013-02-27 13:21:00,
2013-02-27 05:31:00,45.0,2.0,-100.00,NE,51,8.0,15.0,16,-99.99,,,-99.99,,2013-02-27 13:31:00,
2013-02-27 05:42:00,45.0,2.0,-100.00,NE,49,8.0,13.0,16,-99.99,,,-99.99,,2013-02-27 13:42:00,
2013-02-27 05:52:00,45.0,2.0,-100.00,NE,54,9.0,17.0,16,-99.99,,,-99.99,,2013-02-27 13:52:00,
2013-02-27 06:01:00,45.0,2.0,-100.00,NE,55,8.0,15.0,16,-99.99,,,-99.99,,2013-02-27 14:01:00,
2013-02-27 06:11:00,45.0,0.0,-100.00,NE,51,10.0,17.0,15,-99.99,,,-99.99,,2013-02-27 14:11:00,
2013-02-27 06:21:00,45.0,0.0,-100.00,NE,51,10.0,18.0,15,-99.99,,,-99.99,,2013-02-27 14:21:00,
2013-02-27 06:31:00,45.0,0.0,-100.00,NE,48,10.0,19.0,15,-99.99,,,-99.99,,2013-02-27 14:31:00,
2013-02-27 06:42:00,45.0,-1.0,-100.00,NE,53,11.0,20.0,14,-99.99,,,-99.99,,2013-02-27 14:42:00,
2013-02-27 06:52:00,45.0,-1.0,-100.00,NE,56,10.0,18.0,14,-99.99,,,-99.99,,2013-02-27 14:52:00,
2013-02-27 07:01:00,45.0,-1.0,-100.00,NE,52,10.0,23.0,14,-99.99,,,-99.99,,2013-02-27 15:01:00,
2013-02-27 07:12:00,45.0,0.0,-100.00,ENE,62,7.0,14.0,15,-99.99,,,-99.99,,2013-02-27 15:12:00,
2013-02-27 07:32:00,46.0,0.0,-100.00,NE,55,9.0,18.0,14,-99.99,,,-99.99,,2013-02-27 15:32:00,
2013-02-27 07:41:00,47.0,0.0,-100.00,NE,45,11.0,20.0,14,-99.99,,,-99.99,,2013-02-27 15:41:00,
2013-02-27 07:52:00,48.0,0.0,-100.00,NE,44,12.0,20.0,13,-99.99,,,-99.99,,2013-02-27 15:52:00,
2013-02-27 08:01:00,48.0,0.0,-100.00,NE,42,11.0,19.0,13,-99.99,,,-99.99,,2013-02-27 16:01:00,
2013-02-27 08:11:00,49.0,0.0,-100.00,NE,43,9.0,16.0,13,-99.99,,,-99.99,,2013-02-27 16:11:00,
2013-02-27 08:21:00,49.0,0.0,-100.00,NE,34,12.0,21.0,13,-99.99,,,-99.99,,2013-02-27 16:21:00,
2013-02-27 08:32:00,50.0,1.0,-100.00,NNE,32,12.0,20.0,13,-99.99,,,-99.99,,2013-02-27 16:32:00,
2013-02-27 08:42:00,50.0,1.0,-100.00,NNE,31,11.0,19.0,13,-99.99,,,-99.99,,2013-02-27 16:42:00,
2013-02-27 08:52:00,50.0,1.0,-100.00,NNE,32,12.0,25.0,13,-99.99,,,-99.99,,2013-02-27 16:52:00,
2013-02-27 09:01:00,50.0,1.0,-100.00,NNE,28,12.0,23.0,13,-99.99,,,-99.99,,2013-02-27 17:01:00,
2013-02-27 09:11:00,50.0,1.0,-100.00,NE,36,13.0,23.0,13,-99.99,,,-99.99,,2013-02-27 17:11:00,
2013-02-27 09:21:00,51.0,2.0,-100.00,NNE,27,14.0,23.0,13,-99.99,,,-99.99,,2013-02-27 17:21:00,
2013-02-27 09:32:00,51.0,2.0,-100.00,NE,35,13.0,23.0,13,-99.99,,,-99.99,,2013-02-27 17:32:00,
2013-02-27 09:41:00,51.0,2.0,-100.00,NNE,31,12.0,20.0,13,-99.99,,,-99.99,,2013-02-27 17:41:00,
2013-02-27 09:52:00,51.0,2.0,-100.00,NNE,31,13.0,23.0,13,-99.99,,,-99.99,,2013-02-27 17:52:00,
2013-02-27 10:01:00,52.0,3.0,-100.00,NE,37,12.0,22.0,13,-99.99,,,-99.99,,2013-02-27 18:01:00,
2013-02-27 10:11:00,52.0,3.0,-100.00,NE,37,12.0,20.0,13,-99.99,,,-99.99,,2013-02-27 18:11:00,
2013-02-27 10:21:00,52.0,3.0,-100.00,NE,43,12.0,21.0,13,-99.99,,,-99.99,,2013-02-27 18:21:00,
2013-02-27 10:31:00,53.0,4.0,-100.00,NE,42,14.0,24.0,13,-99.99,,,-99.99,,2013-02-27 18:31:00,
2013-02-27 10:42:00,53.0,4.0,-100.00,NE,36,12.0,22.0,13,-99.99,,,-99.99,,2013-02-27 18:42:00,
2013-02-27 10:51:00,53.0,4.0,-100.00,NE,41,13.0,22.0,13,-99.99,,,-99.99,,2013-02-27 18:51:00,
2013-02-27 11:01:00,53.0,4.0,-100.00,NE,48,12.0,20.0,13,-99.99,,,-99.99,,2013-02-27 19:01:00,
2013-02-27 11:11:00,54.0,3.0,-100.00,NE,48,13.0,22.0,12,-99.99,,,-99.99,,2013-02-27 19:11:00,
2013-02-27 11:21:00,55.0,5.0,-100.00,NNE,19,11.0,20.0,13,-99.99,,,-99.99,,2013-02-27 19:21:00,
2013-02-27 11:32:00,55.0,3.0,-100.00,North,10,13.0,23.0,12,-99.99,,,-99.99,,2013-02-27 19:32:00,
2013-02-27 11:41:00,55.0,3.0,-100.00,NNE,23,13.0,24.0,12,-99.99,,,-99.99,,2013-02-27 19:41:00,
2013-02-27 11:51:00,54.0,3.0,-100.00,NE,42,13.0,23.0,12,-99.99,,,-99.99,,2013-02-27 19:51:00,
2013-02-27 12:01:00,55.0,3.0,-100.00,NNE,27,13.0,21.0,12,-99.99,,,-99.99,,2013-02-27 20:01:00,
2013-02-27 12:11:00,54.0,3.0,-100.00,NE,43,13.0,27.0,12,-99.99,,,-99.99,,2013-02-27 20:11:00,
2013-02-27 12:21:00,54.0,3.0,-100.00,NE,36,14.0,23.0,12,-99.99,,,-99.99,,2013-02-27 20:21:00,
2013-02-27 12:31:00,54.0,3.0,-100.00,NE,35,14.0,24.0,12,-99.99,,,-99.99,,2013-02-27 20:31:00,
2013-02-27 12:41:00,55.0,3.0,-100.00,NNE,31,13.0,26.0,12,-99.99,,,-99.99,,2013-02-27 20:41:00,
2013-02-27 12:52:00,55.0,3.0,-100.00,NE,40,12.0,22.0,12,-99.99,,,-99.99,,2013-02-27 20:52:00,
2013-02-27 13:01:00,55.0,3.0,-100.00,NE,35,13.0,23.0,12,-99.99,,,-99.99,,2013-02-27 21:01:00,
2013-02-27 13:11:00,55.0,3.0,-100.00,NE,48,13.0,23.0,12,-99.99,,,-99.99,,2013-02-27 21:11:00,
2013-02-27 13:21:00,55.0,3.0,-100.00,NE,52,14.0,23.0,12,-99.99,,,-99.99,,2013-02-27 21:21:00,
2013-02-27 13:31:00,55.0,3.0,-100.00,NE,50,13.0,21.0,12,-99.99,,,-99.99,,2013-02-27 21:31:00,
2013-02-27 13:41:00,55.0,3.0,-100.00,NE,47,13.0,20.0,12,-99.99,,,-99.99,,2013-02-27 21:41:00,
2013-02-27 13:51:00,56.0,4.0,-100.00,NE,48,12.0,20.0,12,-99.99,,,-99.99,,2013-02-27 21:51:00,
2013-02-27 14:01:00,56.0,4.0,-100.00,NE,45,13.0,21.0,12,-99.99,,,-99.99,,2013-02-27 22:01:00,
2013-02-27 14:11:00,56.0,4.0,-100.00,NE,50,13.0,20.0,12,-99.99,,,-99.99,,2013-02-27 22:11:00,
2013-02-27 14:21:00,56.0,4.0,-100.00,NE,45,13.0,20.0,12,-99.99,,,-99.99,,2013-02-27 22:21:00,
2013-02-27 14:31:00,56.0,4.0,-100.00,NE,47,11.0,18.0,12,-99.99,,,-99.99,,2013-02-27 22:31:00,
2013-02-27 14:41:00,56.0,4.0,-100.00,NE,52,13.0,20.0,12,-99.99,,,-99.99,,2013-02-27 22:41:00,
2013-02-27 14:51:00,56.0,4.0,-100.00,NE,51,12.0,19.0,12,-99.99,,,-99.99,,2013-02-27 22:51:00,
2013-02-27 15:01:00,56.0,2.0,-100.00,NE,36,13.0,22.0,11,-99.99,,,-99.99,,2013-02-27 23:01:00,
2013-02-27 15:11:00,56.0,2.0,-100.00,NE,36,13.0,22.0,11,-99.99,,,-99.99,,2013-02-27 23:11:00,
2013-02-27 15:21:00,55.0,3.0,-100.00,NE,55,14.0,22.0,12,-99.99,,,-99.99,,2013-02-27 23:21:00,
2013-02-27 15:31:00,56.0,4.0,-100.00,NE,53,12.0,19.0,12,-99.99,,,-99.99,,2013-02-27 23:31:00,
2013-02-27 15:42:00,56.0,4.0,-100.00,NE,53,12.0,19.0,12,-99.99,,,-99.99,,2013-02-27 23:42:00,
2013-02-27 15:52:00,56.0,4.0,-100.00,NE,45,12.0,17.0,12,-99.99,,,-99.99,,2013-02-27 23:52:00,
2013-02-27 16:01:00,56.0,4.0,-100.00,NE,53,10.0,17.0,12,-99.99,,,-99.99,,2013-02-28 00:01:00,
2013-02-27 16:11:00,57.0,5.0,-100.00,NNE,32,9.0,16.0,12,-99.99,,,-99.99,,2013-02-28 00:11:00,
2013-02-27 16:21:00,57.0,5.0,-100.00,NE,52,10.0,18.0,12,-99.99,,,-99.99,,2013-02-28 00:21:00,
2013-02-27 16:31:00,56.0,4.0,-100.00,NE,48,10.0,17.0,12,-99.99,,,-99.99,,2013-02-28 00:31:00,
2013-02-27 16:42:00,56.0,4.0,-100.00,NE,48,10.0,17.0,12,-99.99,,,-99.99,,2013-02-28 00:42:00,
2013-02-27 16:51:00,55.0,3.0,-100.00,NE,47,10.0,18.0,12,-99.99,,,-99.99,,2013-02-28 00:51:00,
2013-02-27 17:01:00,55.0,3.0,-100.00,NE,44,12.0,19.0,12,-99.99,,,-99.99,,2013-02-28 01:01:00,
2013-02-27 17:11:00,55.0,3.0,-100.00,NE,39,11.0,18.0,12,-99.99,,,-99.99,,2013-02-28 01:11:00,
2013-02-27 17:21:00,54.0,3.0,-100.00,NE,40,10.0,17.0,12,-99.99,,,-99.99,,2013-02-28 01:21:00,
2013-02-27 17:31:00,54.0,3.0,-100.00,NE,43,9.0,17.0,12,-99.99,,,-99.99,,2013-02-28 01:31:00,
2013-02-27 17:41:00,53.0,4.0,-100.00,NE,42,10.0,16.0,13,-99.99,,,-99.99,,2013-02-28 01:41:00,
2013-02-27 17:51:00,53.0,4.0,-100.00,NNE,30,12.0,17.0,13,-99.99,,,-99.99,,2013-02-28 01:51:00,
2013-02-27 18:01:00,52.0,3.0,-100.00,NNE,19,11.0,18.0,13,-99.99,,,-99.99,,2013-02-28 02:01:00,
2013-02-27 18:11:00,51.0,2.0,-100.00,NNE,25,10.0,16.0,13,-99.99,,,-99.99,,2013-02-28 02:11:00,
2013-02-27 18:21:00,51.0,4.0,-100.00,NNE,18,10.0,16.0,14,-99.99,,,-99.99,,2013-02-28 02:21:00,
2013-02-27 18:31:00,50.0,3.0,-100.00,NNE,23,10.0,15.0,14,-99.99,,,-99.99,,2013-02-28 02:31:00,
2013-02-27 18:41:00,50.0,3.0,-100.00,NNE,23,10.0,15.0,14,-99.99,,,-99.99,,2013-02-28 02:41:00,
2013-02-27 18:51:00,50.0,3.0,-100.00,NNE,23,10.0,15.0,14,-99.99,,,-99.99,,2013-02-28 02:51:00,
2013-02-27 19:01:00,48.0,4.0,-100.00,NE,53,10.0,14.0,16,-99.99,,,-99.99,,2013-02-28 03:01:00,
2013-02-27 19:11:00,48.0,4.0,-100.00,NE,41,8.0,12.0,16,-99.99,,,-99.99,,2013-02-28 03:11:00,
2013-02-27 19:21:00,47.0,6.0,-100.00,NE,56,6.0,10.0,18,-99.99,,,-99.99,,2013-02-28 03:21:00,
2013-02-27 19:31:00,46.0,5.0,-100.00,NE,53,6.0,11.0,18,-99.99,,,-99.99,,2013-02-28 03:31:00,
2013-02-27 19:41:00,46.0,5.0,-100.00,NE,47,9.0,14.0,18,-99.99,,,-99.99,,2013-02-28 03:41:00,
2013-02-27 19:51:00,46.0,5.0,-100.00,NE,47,9.0,14.0,18,-99.99,,,-99.99,,2013-02-28 03:51:00,
2013-02-27 20:01:00,45.0,5.0,-100.00,NE,54,9.0,12.0,19,-99.99,,,-99.99,,2013-02-28 04:01:00,
2013-02-27 20:11:00,45.0,5.0,-100.00,NE,48,9.0,12.0,19,-99.99,,,-99.99,,2013-02-28 04:11:00,
2013-02-27 20:21:00,46.0,5.0,-100.00,NE,50,8.0,11.0,18,-99.99,,,-99.99,,2013-02-28 04:21:00,
2013-02-27 20:31:00,46.0,5.0,-100.00,NE,50,8.0,11.0,18,-99.99,,,-99.99,,2013-02-28 04:31:00,
2013-02-27 20:41:00,46.0,5.0,-100.00,NE,36,5.0,10.0,18,-99.99,,,-99.99,,2013-02-28 04:41:00,
2013-02-27 20:51:00,42.0,9.0,-100.00,South,169,3.0,5.0,25,-99.99,,,-99.99,,2013-02-28 04:51:00,
2013-02-27 21:01:00,39.0,10.0,-100.00,SSW,192,4.0,7.0,30,-99.99,,,-99.99,,2013-02-28 05:01:00,
2013-02-27 21:11:00,38.0,11.0,-100.00,South,173,2.0,4.0,33,-99.99,,,-99.99,,2013-02-28 05:11:00,
2013-02-27 21:22:00,38.0,12.0,-100.00,SSE,167,1.0,5.0,34,-99.99,,,-99.99,,2013-02-28 05:22:00,
2013-02-27 21:31:00,37.0,14.0,-100.00,South,182,2.0,4.0,38,-99.99,,,-99.99,,2013-02-28 05:31:00,
2013-02-27 21:42:00,37.0,14.0,-100.00,South,182,2.0,4.0,38,-99.99,,,-99.99,,2013-02-28 05:42:00,
2013-02-27 21:51:00,35.0,14.0,-100.00,SW,227,1.0,6.0,41,-99.99,,,-99.99,,2013-02-28 05:51:00,
2013-02-27 22:01:00,35.0,14.0,-100.00,SE,138,1.0,3.0,41,-99.99,,,-99.99,,2013-02-28 06:01:00,
2013-02-27 22:11:00,35.0,15.0,-100.00,South,176,2.0,5.0,43,-99.99,,,-99.99,,2013-02-28 06:11:00,
2013-02-27 22:22:00,34.0,15.0,-100.00,SW,218,1.0,4.0,46,-99.99,,,-99.99,,2013-02-28 06:22:00,
2013-02-27 22:32:00,33.0,15.0,-100.00,South,182,1.0,3.0,47,-99.99,,,-99.99,,2013-02-28 06:32:00,
2013-02-27 22:41:00,33.0,15.0,-100.00,SSE,161,1.0,4.0,47,-99.99,,,-99.99,,2013-02-28 06:41:00,
2013-02-27 22:51:00,33.0,14.0,-100.00,SE,140,1.0,2.0,46,-99.99,,,-99.99,,2013-02-28 06:51:00,
2013-02-27 23:01:00,32.0,15.0,-100.00,SSE,154,1.0,4.0,50,-99.99,,,-99.99,,2013-02-28 07:01:00,
2013-02-27 23:11:00,31.0,15.0,-100.00,North,357,1.0,5.0,51,-99.99,,,-99.99,,2013-02-28 07:11:00,
2013-02-27 23:21:00,32.0,15.0,-100.00,North,6,1.0,2.0,49,-99.99,,,-99.99,,2013-02-28 07:21:00,
2013-02-27 23:31:00,32.0,15.0,-100.00,SE,127,1.0,3.0,48,-99.99,,,-99.99,,2013-02-28 07:31:00,
2013-02-27 23:41:00,32.0,16.0,-100.00,SSW,201,2.0,4.0,52,-99.99,,,-99.99,,2013-02-28 07:41:00,
2013-02-27 23:51:00,31.0,15.0,-100.00,North,2,2.0,5.0,51,-99.99,,,-99.99,,2013-02-28 07:51:00,